User: anonymous   Login
Location: Unspecified
(0.0000°N, 0.0000°E)
Time: 01:07:24
(UTC+00:00)
Language:

SEEDS - Orbit

View from above orbital plane
View from above orbital plane
View from above satellite
View from above satellite

Ground track
Ground track

The orbit data is extracted from the following two-line orbital elements,

1 32791U 08021J   21023.50286310  .00000461  00000-0  51659-4 0  9997
2 32791  97.5581  14.1556 0014788  89.2446 271.0468 14.91253604691179
Epoch (UTC): 23 January 2021 12:04:07
Eccentricity: 0.0014788
inclination: 97.5581°
perigee height: 584 km
apogee height: 604 km
right ascension of ascending node: 14.1556°
argument of perigee: 89.2446°
revolutions per day: 14.91253604
mean anomaly at epoch: 271.0468°
orbit number at epoch: 69117

The dashed part of the orbit path shows where the satellite is in the earth's shadow,  

DLR